Time,TemperatureF,DewpointF,PressureIn,WindDirection,WindDirectionDegrees,WindSpeedMPH,WindSpeedGustMPH,Humidity,HourlyPrecipIn,Conditions,Clouds,dailyrainin,SoftwareType,DateUTC
2013-10-09 00:21:00,44.0,41.0,30.08,SSW,198,6.0,6.0,89,0.00,,,0.14,,2013-10-09 07:21:00,
2013-10-09 00:31:00,44.0,41.0,30.08,SSW,198,6.0,6.0,89,0.00,,,0.14,,2013-10-09 07:31:00,
2013-10-09 00:41:00,44.0,41.0,30.08,SSW,198,6.0,6.0,89,0.00,,,0.14,,2013-10-09 07:41:00,
2013-10-09 01:40:00,43.0,41.0,30.09,South,186,6.0,6.0,93,0.00,,,0.08,,2013-10-09 08:40:00,
2013-10-09 01:53:00,43.0,41.0,30.09,South,186,6.0,6.0,93,0.00,,,0.08,,2013-10-09 08:53:00,
2013-10-09 02:11:00,43.0,41.0,30.09,South,186,6.0,6.0,93,0.00,,,0.08,,2013-10-09 09:11:00,
2013-10-09 02:22:00,43.0,41.0,30.09,South,186,6.0,6.0,93,0.00,,,0.08,,2013-10-09 09:22:00,
2013-10-09 02:33:00,43.0,41.0,30.09,South,186,6.0,6.0,93,0.00,,,0.08,,2013-10-09 09:33:00,
2013-10-09 03:23:00,42.0,41.0,30.10,SSW,211,5.0,10.0,95,0.00,,,0.08,,2013-10-09 10:23:00,
2013-10-09 03:42:00,42.0,41.0,30.10,SSW,211,5.0,10.0,95,0.00,,,0.08,,2013-10-09 10:42:00,
2013-10-09 03:53:00,42.0,-99.9,-100.00,South,183,4.0,5.0,-999,0.00,,,-99.99,,2013-10-09 10:53:00,
2013-10-09 04:22:00,41.0,40.0,30.11,South,186,5.0,5.0,95,0.00,,,0.08,,2013-10-09 11:22:00,
2013-10-09 04:52:00,40.0,39.0,30.11,South,176,3.0,6.0,96,0.00,,,0.08,,2013-10-09 11:52:00,
2013-10-09 05:11:00,39.0,38.0,30.11,SE,132,0.0,0.0,96,0.00,,,0.08,,2013-10-09 12:11:00,
2013-10-09 05:21:00,39.0,38.0,30.11,SE,132,0.0,0.0,96,0.00,,,0.08,,2013-10-09 12:21:00,
2013-10-09 05:42:00,37.0,36.0,30.11,South,173,5.0,6.0,98,0.00,,,0.08,,2013-10-09 12:42:00,
2013-10-09 05:52:00,37.0,36.0,30.11,SE,129,0.0,0.0,98,0.00,,,0.08,,2013-10-09 12:52:00,
2013-10-09 06:11:00,37.0,37.0,30.12,SE,131,0.0,0.0,99,0.00,,,0.08,,2013-10-09 13:11:00,
2013-10-09 06:22:00,37.0,37.0,30.12,SE,131,0.0,0.0,99,0.00,,,0.08,,2013-10-09 13:22:00,
2013-10-09 06:41:00,37.0,37.0,30.12,SE,131,0.0,0.0,100,0.00,,,0.08,,2013-10-09 13:41:00,
2013-10-09 06:52:00,37.0,37.0,30.11,SSE,165,0.0,0.0,99,0.00,,,0.08,,2013-10-09 13:52:00,
2013-10-09 07:11:00,36.0,36.0,30.12,SSE,165,0.0,0.0,100,0.00,,,0.08,,2013-10-09 14:11:00,
2013-10-09 07:21:00,35.0,35.0,30.12,SSE,165,0.0,0.0,100,0.00,,,0.08,,2013-10-09 14:21:00,
2013-10-09 07:41:00,35.0,35.0,30.11,SSE,156,0.0,0.0,100,0.00,,,0.08,,2013-10-09 14:41:00,
2013-10-09 07:52:00,36.0,36.0,30.11,SSE,156,0.0,0.0,100,0.00,,,0.08,,2013-10-09 14:52:00,
2013-10-09 08:21:00,38.0,38.0,30.10,SSE,156,0.0,0.0,100,0.00,,,0.08,,2013-10-09 15:21:00,
2013-10-09 08:53:00,38.0,38.0,30.09,SSE,156,0.0,0.0,100,0.00,,,0.08,,2013-10-09 15:53:00,
2013-10-09 09:03:00,38.0,38.0,30.09,SSE,156,0.0,0.0,100,0.00,,,0.08,,2013-10-09 16:03:00,
2013-10-09 09:13:00,38.0,38.0,30.09,SSE,156,0.0,0.0,100,0.00,,,0.08,,2013-10-09 16:13:00,
2013-10-09 09:23:00,38.0,38.0,30.09,SSE,156,0.0,0.0,100,0.00,,,0.08,,2013-10-09 16:23:00,
2013-10-09 10:23:00,46.0,44.0,30.08,SSE,156,0.0,0.0,94,0.00,,,0.08,,2013-10-09 17:23:00,
2013-10-09 10:42:00,47.0,45.0,30.08,SSE,156,0.0,0.0,92,0.00,,,0.08,,2013-10-09 17:42:00,
2013-10-09 10:52:00,48.0,45.0,30.07,SSE,156,0.0,0.0,90,0.00,,,0.08,,2013-10-09 17:52:00,
2013-10-09 11:21:00,50.0,47.0,30.06,NNW,328,0.0,0.0,88,0.00,,,0.08,,2013-10-09 18:21:00,
2013-10-09 11:42:00,51.0,47.0,30.06,NNW,328,0.0,0.0,87,0.00,,,0.08,,2013-10-09 18:42:00,
2013-10-09 11:52:00,51.0,47.0,30.06,NNW,328,2.0,0.0,87,0.00,,,0.08,,2013-10-09 18:52:00,
2013-10-09 12:11:00,51.0,48.0,30.06,WNW,291,6.0,8.0,88,0.00,,,0.08,,2013-10-09 19:11:00,
2013-10-09 12:21:00,50.0,48.0,30.06,NNW,343,6.0,6.0,92,0.00,,,0.08,,2013-10-09 19:21:00,
2013-10-09 12:42:00,50.0,48.0,30.06,WNW,302,7.0,7.0,94,0.00,,,0.08,,2013-10-09 19:42:00,
2013-10-09 12:52:00,49.0,48.0,30.06,NNE,21,4.0,4.0,95,0.00,,,0.08,,2013-10-09 19:52:00,
2013-10-09 13:22:00,51.0,49.0,30.04,NE,39,0.0,0.0,92,0.00,,,0.08,,2013-10-09 20:22:00,
2013-10-09 13:42:00,52.0,49.0,30.03,North,11,0.0,0.0,88,0.00,,,0.08,,2013-10-09 20:42:00,
2013-10-09 13:52:00,52.0,48.0,30.03,NNE,30,6.0,0.0,87,0.00,,,0.08,,2013-10-09 20:52:00,
2013-10-09 14:22:00,53.0,49.0,30.02,North,6,0.0,0.0,87,0.00,,,0.08,,2013-10-09 21:22:00,
2013-10-09 14:43:00,53.0,49.0,30.02,NW,325,7.0,7.0,87,0.00,,,0.08,,2013-10-09 21:43:00,
2013-10-09 14:53:00,52.0,49.0,30.02,NNW,339,3.0,6.0,88,0.00,,,0.08,,2013-10-09 21:53:00,
2013-10-09 15:24:00,52.0,49.0,30.01,North,1,3.0,3.0,88,0.00,,,0.08,,2013-10-09 22:24:00,
2013-10-09 15:42:00,53.0,49.0,30.01,North,357,0.0,0.0,87,0.00,,,0.08,,2013-10-09 22:42:00,
2013-10-09 15:53:00,53.0,49.0,30.00,NW,326,2.0,0.0,87,0.00,,,0.08,,2013-10-09 22:53:00,
2013-10-09 16:22:00,53.0,49.0,30.00,WNW,300,4.0,4.0,87,0.00,,,0.08,,2013-10-09 23:22:00,
2013-10-09 16:53:00,53.0,49.0,30.00,NW,315,0.0,0.0,87,0.00,,,0.08,,2013-10-09 23:53:00,
2013-10-09 17:12:00,53.0,49.0,29.99,NW,319,0.0,3.0,87,0.00,,,0.08,,2013-10-10 00:12:00,
2013-10-09 17:22:00,53.0,49.0,29.98,WNW,302,0.0,0.0,87,0.00,,,0.08,,2013-10-10 00:22:00,
2013-10-09 17:42:00,53.0,48.0,29.98,WSW,248,0.0,0.0,84,0.00,,,0.08,,2013-10-10 00:42:00,
2013-10-09 17:52:00,53.0,49.0,29.98,WSW,248,0.0,0.0,86,0.00,,,0.08,,2013-10-10 00:52:00,
2013-10-09 18:11:00,52.0,48.0,29.98,WSW,248,0.0,0.0,87,0.00,,,0.08,,2013-10-10 01:11:00,
2013-10-09 18:21:00,52.0,49.0,29.98,WSW,248,0.0,0.0,88,0.00,,,0.08,,2013-10-10 01:21:00,
2013-10-09 18:42:00,51.0,48.0,29.98,WSW,248,0.0,0.0,88,0.00,,,0.08,,2013-10-10 01:42:00,
2013-10-09 18:52:00,51.0,48.0,29.97,WSW,248,0.0,0.0,89,0.00,,,0.08,,2013-10-10 01:52:00,
2013-10-09 19:12:00,50.0,48.0,29.97,WSW,248,0.0,0.0,94,0.00,,,0.08,,2013-10-10 02:12:00,
2013-10-09 19:22:00,49.0,48.0,29.97,WSW,248,0.0,0.0,95,0.00,,,0.08,,2013-10-10 02:22:00,
2013-10-09 20:22:00,48.0,47.0,29.95,WSW,248,0.0,0.0,97,0.00,,,0.08,,2013-10-10 03:22:00,
2013-10-09 20:43:00,48.0,47.0,29.96,WSW,248,0.0,0.0,98,0.00,,,0.08,,2013-10-10 03:43:00,
2013-10-09 20:55:00,48.0,47.0,29.96,WSW,248,0.0,0.0,98,0.00,,,0.08,,2013-10-10 03:55:00,
2013-10-09 21:24:00,47.0,47.0,29.95,WSW,248,0.0,0.0,99,0.00,,,0.08,,2013-10-10 04:24:00,
2013-10-09 21:44:00,47.0,47.0,29.95,WSW,248,0.0,0.0,99,0.00,,,0.08,,2013-10-10 04:44:00,
2013-10-09 21:54:00,46.0,46.0,29.95,WSW,248,0.0,0.0,100,0.00,,,0.08,,2013-10-10 04:54:00,
2013-10-09 22:22:00,46.0,46.0,29.95,WSW,248,0.0,0.0,100,0.00,,,0.08,,2013-10-10 05:22:00,
2013-10-09 22:43:00,46.0,46.0,29.94,WSW,248,0.0,0.0,100,0.00,,,0.08,,2013-10-10 05:43:00,
2013-10-09 22:52:00,46.0,46.0,29.94,WSW,248,0.0,0.0,100,0.00,,,0.08,,2013-10-10 05:52:00,
2013-10-09 23:13:00,46.0,46.0,29.93,WSW,248,0.0,0.0,100,0.00,,,0.08,,2013-10-10 06:13:00,
2013-10-09 23:22:00,45.0,45.0,29.93,WSW,248,0.0,0.0,100,0.00,,,0.08,,2013-10-10 06:22:00,
2013-10-09 23:42:00,46.0,46.0,29.94,WSW,248,0.0,0.0,100,0.00,,,0.08,,2013-10-10 06:42:00,
2013-10-09 23:52:00,45.0,45.0,29.94,WSW,248,0.0,0.0,100,0.00,,,0.08,,2013-10-10 06:52:00,